Location: Little Chesterford
(52.0500°N, 0.1833°E)
Time: 15:08:09
(UTC+00:00)

Cosmos 2369 Rocket - Pass Details

Date: 26 September 2023
Orbit: 828 x 853 km, 71.0° (Epoch: 08 December)

Event Time Altitude Azimuth Distance (km) Brightness Sun altitude
Rises 21:00:41 0° 330° (NNW) 3,381 6.4 -28.2°
Reaches altitude 10° 21:03:12 10° 335° (NNW) 2,444 5.4 -28.5°
Enters shadow 21:08:00 49° 27° (NNE) 1,063 2.7 -29.1°
